STARLINK-5210, 54082

Orbit data source: Space-Track

STARLINK-5210, 54082 is a payload satellite owned by SpaceX/Seattle (US) in LEO that was launched on Thu, 20 Oct 2022 UTC via an FALCON 9 launch vehicle from the Air Force Eastern Test Range (AFETR). Payload-class satellites include a variety of spacecraft equipped with specific instruments for various scientific and technological missions. These include communications satellites like Starlink; space stations such as the ISS; scientific satellites like the Hubble; Earth observation satellites from companies like Planet Labs, Umbra, and HawkEye 360; GPS; miniature CubeSats for education and research; and military/defense satellites.

Loading next visibility...
Identifier
54082, 2022-136AH
Orbit
LEO
Last TLE update
11 hours ago
Origin
Manufacturer
SpaceX/Seattle
Mission
Operational Commercial Communications
Bus & Motor
STARLINK, Unknown motor
Mass
305 kg wet, ~290 kg dry
Launch date (UTC)
2022-10-20 (3 years ago)
Launch vehicle
FALCON 9
Launch site
Air Force Eastern Test Range (AFETR)
Object type
Payload
Rocket body
Debris
Shape & HBR
Box + 1 Pan, 8.86 m
Radar Cross Section
13.562 m², Large (>1 m²)

Expand to show TLE details & history

TLE from 11 hours ago
0 STARLINK-5210
1 54082U 22136AH  25181.99185581 -.00000575  00000-0 -18065-4 0  9999
2 54082  53.2187  24.2190 0001414  87.9441 272.1713 15.08839313149466
Epoch: 2025-06-30T23:48Z
TLE epoch observation values (Epoch: 2025-06-30T23:48:16.341Z)
Latitude
-0.00005°
Longitude
107.85716°
Altitude
540.606 km
Speed
7.593 km/s
True Right ascension
01h 36m 52s
True Declination
0° 00' 00"
Sunlit
Object was in daylight at epoch
Visualization orbit readout
Latitude
-36.04789°
Longitude
73.05355°
Altitude
552.011 km
Speed
7.585 km/s
Apparent Right ascension
02h 53m 52s
Apparent Declination
-79° 50' 55"
Sunlit
Object is in full shadow
Visualization observer readout
Local Sidereal Time
22:21:59
Azimuth
168.421° S
Elevation
-35.515°
Doppler factor
1
Orbital elements
Apogee altitude
540.968 km
Perigee altitude
539.012 km
Semi-major axis
6,918.127 km
Eccentricity
0.00014
Inclination
53.2187°
RAAN
24.219°
Arg. of periapsis
87.9441°
True anomaly
Unknown
Mean anomaly
272.1713°
Eccentric anomaly
Unknown
Mean motion
3.7719 °/min
Orbital period
95.44 mins
BSTAR
-0.000018065
Loading maneuver chart data...
Loading SW <> Apogee altitude chart data...
Loading historical data...
Loading historical data...
Loading historical data...
Loading historical data...
Loading historical data...
Loading historical data...
Loading historical data...

STARLINK-5210 Visibility forecast

Observer location: undefined°, undefined°

Span
Click to sort rows by Start time (UTC) header in descending order
Start Az.
Max El. time (UTC)
Max El. Az.
Max El.
End time (UTC)
End Az.
7 mins2025-07-01 15:51:29.793Z212.381° SW2025-07-01 15:55:29.793Z120.416° SE38.941°2025-07-01 15:58:29.793Z60.37° ENE
5 mins2025-07-01 17:32:29.793Z285.533° WNW2025-07-01 17:34:29.793Z324.736° NNW23.984°2025-07-01 17:37:29.793Z24.962° NE
4 mins2025-07-01 20:54:29.793Z350.21° N2025-07-01 20:56:29.793Z24.938° NE15.402°2025-07-01 20:58:29.793Z54.94° ENE
6 mins2025-07-01 22:33:29.793Z324.406° NNW2025-07-01 22:36:29.793Z60.111° ENE37.588°2025-07-01 22:39:29.793Z111.589° ESE
4 mins2025-07-02 00:13:29.793Z263.826° W2025-07-02 00:15:29.793Z224.075° SW19.485°2025-07-02 00:17:29.793Z189.862° SSW
|